Location: Akhaldaba
(42.0896°N, 44.4724°E)
Time: 12:27:28
(UTC+00:00)

Daily predictions for brighter satellites

Satellite Brightness Start Highest point End
(mag) Time Altitude Azimuth Time Altitude Azimuth Time Altitude Azimuth
Tsikada Rocket 4.0 16:51:08 10° S 16:57:19 78° E 17:03:37 10° N
Cosmos 2056 Rocket 4.5 16:53:28 10° NNW 16:58:37 50° WSW 17:03:40 10° S
CSL-04 Debris 4.3 16:54:35 10° SSE 17:00:02 90° SW 17:05:32 10° NNW
Cosmos 1452 Rocket 3.9 16:56:57 10° N 17:02:04 51° ENE 17:07:09 10° SE
CZ-4 R/B 2.9 17:00:26 10° SSW 17:03:55 34° W 17:07:30 10° NNW
CZ-4C R/B 4.1 17:01:40 10° NNE 17:05:17 33° E 17:08:59 10° SSE
Lacrosse 4 Rocket 3.8 17:04:43 10° NNE 17:05:41 11° NE 17:06:41 10° ENE
Resurs 01 Rocket 1.8 17:01:26 10° S 17:05:52 79° WSW 17:10:19 10° NNW
Cosmos 1766 Rocket 3.6 17:01:23 10° N 17:05:53 84° E 17:10:20 10° S
Okean O Rocket 1.7 17:04:13 10° SSE 17:08:38 89° WSW 17:13:06 10° NNW
CARTOSAT-1 3.7 17:05:26 10° S 17:09:41 77° WSW 17:13:57 10° NNW
Terra 3.5 17:07:33 10° ESE 17:10:51 19° ENE 17:14:09 10° NNE
USA 32 4.0 17:07:41 10° S 17:12:52 75° E 17:18:06 10° N
Cosmos 1603 3.7 17:07:46 10° SSW 17:13:23 70° ESE 17:19:05 10° NNE
Cosmos 2369 Rocket 2.8 17:09:02 10° NNW 17:14:29 55° WSW 17:19:57 10° S
USA 229 DEB 4.3 17:07:01 10° NW 17:14:32 68° WSW 17:22:34 10° SSE
USA 229 4.3 17:07:07 10° NW 17:14:38 69° WSW 17:22:42 10° SSE
PSLV R/B 3.9 17:13:01 10° S 17:16:42 71° WSW 17:20:22 10° NNW
SeaSat 1 2.8 17:14:01 10° SSE 17:18:53 67° WSW 17:23:47 10° NNW
Hubble Space Telescope 2.8 17:19:23 10° SSW 17:20:36 11° S 17:21:49 10° SSE
DELTA 2 R/B (1) 4.2 17:16:11 10° SW 17:21:11 35° SSE 17:26:13 10° E
ISS -2.5 17:19:58 10° WNW 17:23:01 33° SW 17:25:56 11° SSE
USA 306 2.9 17:22:03 10° WNW 17:25:47 60° SW 17:29:07 13° SE
Cosmos 1408 Rocket 4.1 17:23:53 10° N 17:28:10 44° ENE 17:31:58 13° SSE
Okean 1 3.7 17:25:10 10° SSE 17:28:47 40° E 17:32:26 10° NNE
Cosmos 1151 Rocket 4.4 17:29:52 13° SE 17:32:31 22° E 17:35:54 10° NE
Cosmos 1331 Rocket 4.0 17:31:53 10° NNW 17:37:08 88° WSW 17:42:00 12° SSE
Cosmos 1943 4.5 17:37:36 10° SW 17:43:01 45° WNW 17:48:27 10° NNE
Meteor 1-10 Rocket 4.2 17:38:26 10° S 17:44:07 87° E 17:49:46 10° N
Nadezhda 4 Rocket 4.4 17:40:08 11° SSE 17:45:49 45° E 17:51:45 10° NNE
MetOp-B 4.1 17:41:15 12° SSE 17:46:15 79° ENE 17:51:37 10° N
Cosmos 2279 Rocket 4.0 17:41:29 10° N 17:47:42 88° E 17:53:54 10° S
Cosmos 1110 Rocket 4.4 17:43:43 10° NNW 17:48:58 63° WSW 17:53:57 11° S
Meteor 2-10 4.1 17:50:03 10° N 17:55:26 64° ENE 17:59:14 19° SSE
Spot 2 Rocket 4.0 17:52:15 18° SE 17:55:37 46° ENE 18:00:26 10° N
Cosmos 1536 2.8 17:52:48 10° N 17:56:43 82° W 17:59:47 16° S
Meteor 1-11 Rocket 3.8 17:51:45 10° N 17:57:32 88° E 18:02:34 14° S
NOSS 3-3 (C) 4.0 17:53:37 10° S 17:58:33 44° ESE 18:04:13 10° NE
Okean-O 3.4 17:54:48 10° S 17:59:03 48° W 18:03:20 10° NNW
BREEZE-M DEB (TANK) 3.8 17:58:25 21° SE 17:59:15 23° ESE 18:04:58 10° ENE
USA 245 2.5 17:59:24 37° ESE 17:59:51 44° ENE 18:02:16 10° N
SPOT 5 2.8 17:58:51 14° S 18:02:37 71° WSW 18:06:58 10° NNW
Landsat 4 3.9 18:01:46 27° SE 18:03:20 47° ENE 18:06:41 10° N
Cosmos 1340 2.6 18:01:00 10° N 18:04:21 53° ENE 18:05:42 30° SE
Cosmos 1500 Rocket 3.4 18:00:22 10° N 18:04:41 83° E 18:07:32 21° S
Meteor 2-9 Rocket 4.3 18:02:16 10° N 18:08:11 84° E 18:12:34 19° SSE
Cosmos 1626 3.5 18:12:23 19° E 18:12:23 19° E 18:14:30 10° NE
Sich 1 3.0 18:08:32 10° N 18:12:57 85° E 18:15:30 24° S
Cosmos 1805 Rocket 3.5 18:11:53 10° N 18:16:19 89° WNW 18:18:56 24° S
Ariane Rocket 3.0 18:15:51 25° SSE 18:18:51 73° ENE 18:23:56 10° N
Cosmos 1633 Rocket 4.3 18:15:48 10° NNE 18:19:33 27° ENE 18:20:52 23° ESE
Cosmos 1726 4.0 18:17:55 10° NW 18:20:17 20° W 18:22:37 10° SW
Cosmos 2026 Rocket 4.3 18:20:44 24° SSE 18:24:13 48° E 18:30:09 10° NNE
Cosmos 1733 3.1 18:20:48 10° NNW 18:24:18 70° W 18:25:45 32° S
Cosmos 1666 Rocket 4.3 18:21:27 10° N 18:25:26 36° ENE 18:26:41 30° ESE
Meteor 2-4 Rocket 4.0 18:22:30 23° SSE 18:26:03 56° E 18:31:50 10° NNE
Lacrosse 5 rocket 4.2 18:27:23 10° NNW 18:29:09 12° NNE 18:30:55 10° NE
USA 59 Rocket 0.3 18:26:50 10° NW 18:31:02 89° SW 18:33:42 31° SSE
ERS-1 Rocket 3.3 18:28:17 21° S 18:31:33 62° WSW 18:36:33 10° NNW
SPOT 3 Rocket 3.5 18:30:01 28° SSE 18:32:46 87° ENE 18:37:56 10° NNW
Cosmos 1607 4.4 18:30:36 25° SSE 18:33:44 41° ESE 18:39:44 10° NE
NOSS 2-1 (E) 3.8 18:29:52 10° NW 18:34:05 84° SW 18:36:41 32° SSE
Cosmos 614 Rocket 4.3 18:30:10 10° SSW 18:35:20 68° WNW 18:40:33 10° NNE
Cosmos 1818 3.7 18:30:45 10° SW 18:36:12 78° NW 18:41:42 10° NNE
Meteor 1-27 Rocket 4.4 18:31:06 10° SSW 18:36:28 53° WNW 18:41:55 10° N
Cosmos 1340 Rocket 4.1 18:37:34 10° SW 18:41:16 38° WNW 18:45:00 10° N
Spot 1 3.9 18:38:47 10° NNE 18:42:57 78° ESE 18:44:40 36° S
Lacrosse 4 Rocket 1.3 18:40:29 10° NNW 18:44:36 84° ENE 18:45:42 49° SE
Cosmos 1833 Rocket 2.9 18:44:33 33° SSE 18:46:40 50° ESE 18:52:04 10° NE
NOSS 2-1 (D) 4.0 18:43:03 10° NW 18:47:13 62° WSW 18:49:20 35° S
Terra 2.5 18:45:32 24° SSW 18:48:04 48° W 18:52:38 10° NNW
IRIDIUM 106 4.3 18:45:12 10° N 18:50:26 69° E 18:52:20 39° SSE
Cosmos 1656 3.6 18:48:05 10° NNW 18:53:36 87° ENE 18:55:43 39° SSE
Cosmos 1269 Rocket 4.0 18:52:18 23° SSW 18:55:37 87° WNW 19:00:56 10° NNE
Orbus 7S? 3.6 18:49:34 10° SW 18:56:33 77° SE 18:59:58 10° NE
Cosmos 1805 3.6 18:53:45 10° NNW 18:57:23 54° W 18:58:10 44° SW
Cosmos 2082 Rocket 3.8 19:00:21 18° E 19:00:21 18° E 19:03:40 10° ENE
Cosmos 1766 3.7 18:56:47 10° N 19:00:22 42° ENE 19:00:23 42° E
Cosmos 1553 Rocket 4.4 18:58:04 10° N 19:03:56 47° ENE 19:05:57 35° SE
DELTA 2 R/B (1) 3.5 19:01:38 10° WSW 19:07:11 65° S 19:10:01 29° E
USA 281 3.2 19:07:18 37° SSE 19:10:13 86° ENE 19:16:51 10° NNW
Cosmos 724 4.3 19:08:50 38° S 19:10:56 61° ESE 19:16:42 10° NE
Cosmos 2360 4.2 19:05:25 10° NNW 19:11:09 72° ENE 19:13:00 44° SE
Landsat 5 4.1 19:09:53 10° N 19:13:34 48° WNW 19:14:51 33° SW
Meteor 1-18 Rocket 4.5 19:10:28 28° SSW 19:13:47 73° WNW 19:19:42 10° N
Cosmos 1470 4.0 19:11:26 10° NNE 19:14:18 27° ENE 19:14:18 27° ENE
Cosmos 1975 3.6 19:14:13 10° NNW 19:17:57 42° W 19:18:36 38° WSW
GEOS 3 Rocket 3.4 19:13:03 10° NE 19:18:14 79° SE 19:20:24 36° SSW
Cosmos 2285 Rocket 4.2 19:19:11 43° SSE 19:20:46 53° ESE 19:26:54 10° NNE
Cosmos 1092 Rocket 4.3 19:17:11 25° SSW 19:20:57 63° W 19:27:15 10° N
ARIANE 5 R/B 2.8 19:25:29 51° E 19:25:48 52° ENE 19:30:00 10° N
Cosmos 1328 Rocket 4.4 19:28:09 33° WSW 19:29:29 44° WNW 19:33:38 10° N
Cosmos 1023 Rocket 4.4 19:28:32 53° S 19:29:50 84° ESE 19:35:04 10° NNE
Cosmos 2266 Rocket 4.4 19:33:05 41° ESE 19:34:22 47° E 19:40:20 10° NNE
NOSS 3-4 (A) 4.2 19:28:06 10° NNW 19:34:57 60° NE 19:38:50 31° ESE
NOSS 3-4 (C) 4.2 19:28:12 10° NNW 19:35:03 59° NE 19:38:57 31° ESE
Cosmos 1140 Rocket 3.4 19:34:28 54° SSW 19:35:42 89° ESE 19:40:57 10° NNE
CZ-2C R/B 3.4 19:32:44 10° NNE 19:37:13 87° ESE 19:37:29 78° S
Cosmos 1515 Rocket 3.4 19:40:00 74° WSW 19:40:14 77° W 19:44:35 10° N
Cosmos 1626 4.1 19:45:10 18° W 19:45:32 18° WNW 19:47:51 10° NNW
Cosmos 1697 Rocket 2.6 19:42:46 10° NNW 19:48:25 84° WSW 19:49:25 62° SSE
CZ-3 Stage 3 4.0 19:19:03 10° WSW 19:48:30 46° S 19:51:44 36° SE
In-Cosmos 22 4.4 19:49:49 51° ESE 19:50:31 54° E 19:56:05 10° NNE
Cosmos 1707 3.3 19:51:54 52° N 19:51:54 52° N 19:54:44 10° N
Cosmos 1470 Rocket 4.2 19:50:07 10° NNW 19:54:20 45° W 19:54:36 44° WSW
PSLV R/B 4.0 19:51:02 10° N 19:54:49 73° NW 19:54:49 73° NW
Cosmos 1869 Rocket 4.0 19:51:46 10° N 19:55:51 52° ENE 19:55:51 52° ENE
Cosmos 1655 Rocket 4.3 19:56:27 45° ESE 19:57:36 50° E 20:03:44 10° NNE
Cosmos 1980 Rocket 2.5 19:53:00 10° NNW 19:58:38 57° ENE 19:59:53 47° ESE
Cosmos 2228 Rocket 4.3 20:04:25 31° ENE 20:04:25 31° ENE 20:07:50 10° NNE
Cosmos 1441 Rocket 4.3 20:00:49 10° N 20:03:19 38° NNE 20:03:19 38° NNE
SL-8 R/B 3.6 20:00:52 10° WNW 20:05:39 81° NNE 20:05:49 80° ENE
Cosmos 44 Rocket 3.6 20:02:41 10° NW 20:07:10 51° WSW 20:07:10 51° WSW
Lacrosse 5 rocket 2.7 20:04:53 10° NNW 20:08:39 32° NNE 20:09:28 29° ENE
Cosmos 1842 4.4 20:10:07 35° WNW 20:10:07 35° WNW 20:13:10 10° N
Cosmos 540 Rocket 4.2 20:05:16 10° N 20:10:08 40° ENE 20:10:59 37° E
Cosmos 1674 4.2 20:11:20 27° WNW 20:11:20 27° WNW 20:13:59 10° NNW
Cosmos 1763 Rocket 3.7 20:07:01 10° NNW 20:12:16 59° ENE 20:12:54 55° E
Cosmos 1417 Rocket 4.4 20:07:13 10° N 20:13:31 78° W 20:14:50 57° SSW
Cosmos 407 Rocket 3.9 20:16:11 47° WSW 20:17:23 59° WNW 20:22:34 10° NNE
Cosmos 1933 Rocket 4.2 20:15:05 10° NNW 20:19:05 47° W 20:19:05 47° W
USA 59 Rocket 2.8 20:18:55 10° W 20:20:15 12° WSW 20:20:15 12° WSW
Cosmos 676 Rocket 4.3 20:24:20 51° E 20:24:20 51° E 20:29:19 10° NNE
GP-B 3.9 20:19:58 10° NNE 20:23:40 41° ENE 20:23:40 41° ENE
Cosmos 1954 Rocket 4.0 20:25:07 65° ESE 20:25:07 65° ESE 20:30:22 10° NNE
H-2A R/B 3.1 20:25:54 51° WNW 20:25:54 51° WNW 20:29:35 10° NNW
Cosmos 2369 3.7 20:20:21 10° NNW 20:26:04 72° ENE 20:26:58 60° ESE
Cosmos 1190 Rocket 3.9 20:30:43 75° SW 20:31:08 82° WNW 20:36:29 10° NNE
COSMOS 2406 3.1 20:33:19 71° SSW 20:34:00 88° ESE 20:39:48 10° NNE
ALOS 2 2.7 20:34:53 72° NNW 20:34:53 72° NNW 20:38:52 10° NNW
SL-16 R/B 3.7 20:33:23 10° N 20:38:21 30° NE 20:40:53 21° E
Meteor 1-23 Rocket 4.0 20:38:38 72° SSW 20:39:13 86° W 20:44:54 10° N
Meteor 1-12 Rocket 4.2 20:37:06 10° N 20:43:05 89° ESE 20:43:55 68° S
S3M 4.3 20:37:01 10° NNW 20:43:14 55° W 20:44:31 47° SW
Cosmos 2082 Rocket 2.4 20:42:09 51° WSW 20:43:23 65° WNW 20:49:05 10° NNE
Meteor 2-20 4.4 20:40:03 10° N 20:46:14 72° E 20:47:18 59° SE
PSLV R/B 3.9 20:42:01 10° NNE 20:45:49 61° NE 20:45:49 61° NE
Cosmos 1758 4.1 20:43:59 10° N 20:46:48 47° N 20:46:48 47° N
Cosmos 2360 Rocket 4.4 20:46:20 10° N 20:50:26 20° NE 20:54:30 10° E
Cosmos 1707 Rocket 3.8 20:51:02 69° N 20:51:02 69° N 20:55:00 10° N
Meteor 2-10 Rocket 3.6 20:51:30 10° NNW 20:57:18 74° W 20:57:48 69° SW
USA 267 3.3 20:56:56 10° NE 21:03:18 53° SE 21:03:45 52° SSE
Cosmos 2315 Rocket 4.2 20:57:30 10° NNW 21:03:40 56° W 21:04:44 50° SW
Okean 3 4.0 21:05:01 55° NNE 21:05:01 55° NNE 21:08:17 10° N
Cosmos 1315 Rocket 4.1 21:14:00 34° ENE 21:14:00 34° ENE 21:16:43 10° NNE
H-2A R/B 2.3 21:08:56 10° N 21:12:54 68° NNW 21:12:54 68° NNW
Cosmos 968 Rocket 4.3 21:16:54 37° E 21:16:54 37° E 21:21:27 10° NE
Cosmos 1244 Rocket 4.3 21:17:23 64° SSW 21:18:24 84° W 21:24:39 10° N
Cosmos 1908 Rocket 4.1 21:19:06 10° N 21:23:12 52° ENE 21:23:12 52° ENE
Cosmos 2278 3.6 21:18:38 10° NNW 21:24:22 85° ENE 21:25:10 68° SE
Meteor 2-20 Rocket 4.4 21:18:12 10° N 21:24:43 82° W 21:25:54 62° S
Cosmos 1346 Rocket 3.9 21:21:17 10° NNW 21:23:58 39° NW 21:23:58 39° NW
SL-4 R/B 3.5 21:27:36 31° ENE 21:27:36 31° ENE 21:30:01 10° ENE
Cosmos 1733 Rocket 4.0 21:22:49 10° NNW 21:26:12 38° WNW 21:26:12 38° WNW
Cosmos 1850 Rocket 3.9 21:30:06 75° SE 21:30:18 77° ESE 21:35:34 10° NNE
Cosmos 2322 Rocket 2.9 21:27:49 10° NNW 21:33:20 49° ENE 21:35:31 33° ESE
Cosmos 841 Rocket 3.3 21:30:37 10° NNW 21:35:53 81° WSW 21:36:04 79° SW
Cosmos 1386 Rocket 4.5 21:36:23 58° SSE 21:37:44 79° E 21:44:06 10° N
USA 234 4.5 21:31:57 10° E 21:37:59 41° NNE 21:44:01 10° NW
Resurs 1-4 Rocket 4.3 21:35:41 10° ENE 21:38:06 13° E 21:39:51 11° ESE
Cosmos 1741 Rocket 3.8 21:39:29 80° S 21:39:48 87° ESE 21:45:06 10° NNE
Okean 1-7 3.4 21:41:35 58° NW 21:41:35 58° NW 21:45:26 10° N
Cosmos 1980 Rocket 3.8 21:38:01 10° NW 21:41:37 21° W 21:41:37 21° W
CZ-2D R/B 4.3 21:42:40 10° NE 21:45:46 15° E 21:47:45 13° ESE
Timation 1 Rocket 4.2 21:45:34 64° SSW 21:46:35 89° WNW 21:52:35 10° NNE
Lacrosse 5 rocket 3.5 21:43:14 10° WNW 21:44:16 16° WNW 21:44:16 16° WNW
Cosmos 1709 Rocket 4.4 21:46:06 42° SE 21:47:51 55° E 21:54:03 10° NNE
Cosmos 2333 Rocket 3.1 21:43:10 10° NNW 21:48:41 46° ENE 21:51:48 24° ESE
Cosmos 1953 3.2 21:54:13 10° NNW 21:57:01 41° NW 21:57:01 41° NW
Genesis I 4.4 21:59:24 33° NNW 21:59:24 33° NNW 22:02:12 10° NNE
IDEFIX/ARIANE 42P 4.0 21:56:14 10° NE 22:00:43 28° E 22:02:09 24° ESE
Cosmos 1703 Rocket 3.8 22:01:24 58° WNW 22:01:24 58° WNW 22:05:38 10° N
ADEOS II 4.3 22:04:26 10° NE 22:07:26 15° E 22:10:01 11° ESE
Cosmos 1833 4.2 22:06:59 58° SSE 22:07:58 71° ESE 22:13:36 10° NNE
SJ 16-02 1.2 22:08:51 82° ENE 22:08:51 82° ENE 22:13:02 10° NNE
Cosmos 1300 Rocket 3.5 22:05:37 10° N 22:09:55 71° E 22:10:02 70° E
Cosmos 1455 3.6 22:07:32 10° NNW 22:09:28 27° NW 22:09:28 27° NW
RESURS DK-1 2.5 22:11:20 10° NNW 22:15:23 65° ENE 22:15:33 64° E
Cosmos 1814 Rocket 4.0 22:12:53 10° NNW 22:18:09 83° ENE 22:19:32 51° SSE
ATLAS CENTAUR R/B 2.8 22:21:53 23° E 22:21:53 23° E 22:24:01 10° ENE
Cosmos 2219 Rocket 3.0 22:15:56 10° NNW 22:21:25 48° ENE 22:26:05 14° SE
SL-16 R/B 2.6 22:17:14 10° NW 22:22:34 42° WSW 22:22:42 42° WSW
ATLAS 2AS CENTAUR R/B 3.3 22:16:16 10° NNW 22:22:59 55° NE 22:29:26 10° SE
COBE Rocket 4.3 22:22:44 10° NNE 22:27:39 55° E 22:28:59 42° SSE
Cosmos 2242 Rocket 3.4 22:30:58 71° SW 22:31:20 77° W 22:35:51 10° N
Cosmos 1745 Rocket 4.5 22:30:04 38° WSW 22:31:49 47° WNW 22:37:54 10° N
SL-16 R/B 4.4 22:28:44 10° ESE 22:33:48 27° ENE 22:38:54 10° N
Cosmos 2360 Rocket 2.1 22:29:19 10° NNW 22:35:00 71° WSW 22:36:34 47° S
CZ-2C R/B 3.6 22:32:36 17° SE 22:36:14 43° ENE 22:41:08 10° N
Cosmos 2333 4.2 22:31:26 10° NNW 22:37:12 86° ENE 22:40:07 31° SSE
Cosmos 839 Rocket 4.1 22:31:33 10° NNW 22:38:34 85° ENE 22:43:32 17° SSE
Cosmos 405 Rocket 4.4 22:37:37 10° NNE 22:40:46 27° ENE 22:42:28 19° ESE
Okean 2 Rocket 4.5 22:37:10 10° N 22:41:13 34° ENE 22:43:47 19° SE
Meteor 2-5 Rocket 3.9 22:39:53 41° S 22:42:05 78° E 22:48:04 10° NNE
CZ-2C R/B 4.2 22:39:41 10° NNE 22:45:06 41° E 22:47:58 24° SSE
USA 267 3.9 22:40:00 10° NE 22:46:16 51° NNW 22:51:04 18° W
Cosmos 1241 Rocket 4.5 22:44:40 41° S 22:46:53 72° ESE 22:53:04 10° NE
Cosmos 2074 Rocket 4.3 22:50:03 27° SSE 22:53:25 61° E 22:59:31 10° NNE
NPP 3.6 22:49:57 10° NNE 22:55:23 85° ESE 22:57:27 40° S
Tiangong -1.0 22:57:16 35° E 22:57:16 35° E 22:59:13 10° E
Cosmos 1570 Rocket 4.1 22:51:11 10° NNW 22:56:32 76° ENE 23:00:09 21° SSE
Atlas Centaur 2 3.8 23:00:05 12° SE 23:00:05 12° SE 23:00:43 10° SE
Cosmos 1932 4.4 22:55:09 38° SSW 22:57:47 80° ESE 23:04:07 10° NE
COSMOS 2428 3.8 22:52:28 10° NNW 22:57:54 45° ENE 23:03:19 10° SE
ALOS 4.2 22:54:28 10° NE 22:58:06 23° E 23:01:12 12° SE
Cosmos 371 Rocket 4.4 22:56:14 25° SSE 22:58:14 35° ESE 23:02:35 10° NE
Helios 1A Rocket 4.4 23:01:28 22° WNW 23:01:28 22° WNW 23:03:46 10° NW
SL-4 R/B 3.4 23:02:20 19° WNW 23:04:49 36° NNW 23:08:55 10° NE
H-2A R/B 3.3 23:01:25 10° N 23:05:23 72° WNW 23:06:07 55° SW
Cosmos 1892 3.0 23:04:45 43° SE 23:05:27 51° E 23:08:52 10° NNE
MSX 3.8 22:59:58 10° NNE 23:05:44 90° ESE 23:08:23 34° SSW
Cosmos 2208 Rocket 4.2 23:03:27 10° NNW 23:08:43 72° ENE 23:13:15 14° SSE
Cosmos 2098 Rocket 4.0 23:04:33 10° NNW 23:10:25 66° W 23:13:47 29° SSW
MOZ.5/SAFIR/RUBIN 5/SL-8 4.2 23:10:18 38° WSW 23:11:03 41° W 23:15:30 10° NNW
Cosmos 1408 4.5 23:15:08 14° WNW 23:15:08 14° WNW 23:16:16 10° NW
Meteor 1-24 Rocket 4.1 23:13:50 33° SW 23:16:25 56° WNW 23:22:16 10° N
Cosmos 2322 Rocket 3.3 23:12:33 10° NW 23:16:59 24° WSW 23:17:17 24° WSW
Cosmos 1025 Rocket 4.3 23:14:14 17° SSE 23:17:03 36° E 23:21:04 10° NNE
Resurs 1-4 Rocket 2.0 23:13:11 10° N 23:18:27 77° WNW 23:20:54 33° SSW
Cosmos 2184 Rocket 4.0 23:15:44 27° S 23:19:20 88° W 23:25:41 10° N
USA 234 3.2 23:14:08 10° SE 23:20:41 75° SW 23:27:16 10° NW
Cosmos 2297 Rocket 3.3 23:19:18 17° SSE 23:23:07 37° ESE 23:28:15 10° NE
CZ-2D R/B 2.2 23:20:52 10° N 23:26:17 70° WNW 23:29:03 29° SSW
Nadezhda 3 Rocket 4.2 23:20:03 10° N 23:26:25 72° E 23:32:40 10° SSE
Cosmos 1328 4.2 23:25:12 27° SSE 23:27:03 55° E 23:30:49 10° NNE
Cosmos 2154 Rocket 3.9 23:28:12 23° S 23:32:13 86° W 23:38:29 10° N
Cosmos 2333 Rocket 3.2 23:28:00 10° NW 23:32:40 26° WSW 23:33:45 25° WSW
IDEFIX/ARIANE 42P 3.4 23:35:27 10° N 23:40:16 38° WNW 23:42:54 23° WSW
Cosmos 1455 Rocket 4.3 23:39:03 10° N 23:43:14 41° ENE 23:47:24 10° SSE
CZ-4C R/B 2.9 23:43:26 16° S 23:46:16 34° ESE 23:50:53 10° NE
ADEOS II 2.1 23:42:18 10° N 23:47:31 67° WNW 23:50:54 22° SSW
SJ 16-02 3.8 23:47:04 10° WNW 23:47:41 10° NW 23:48:18 10° NW
Cosmos 1825 2.5 23:48:22 32° WSW 23:49:24 41° WNW 23:52:40 10° N
Cosmos 1674 Rocket 4.4 23:50:15 24° WSW 23:52:08 35° WNW 23:56:13 10° N
